Vorticity
5 4 6 5 7 9 12 11 9 10 7 9 8 10 7 6 17 -0 11 9 2 -0 16 10 11 6 9 3 -0 34 22 -0 2 11 17 27 -17 49 -36 33 -0 41 15 9 -4 12 -13 24 20 9 16 12 15 16
5 5 5 7 7 11 14 11 11 10 8 9 8 9 5 8 5 20 19 4 3 27 -13 15 10 5 4 14 9 3 13 1 9 39 26 1 14 -11 23 -0 22 4 -7 12 56 25 12 14 17 19 14 18 20 15
5 5 5 5 6 10 15 12 11 10 8 9 7 7 7 7 7 16 5 17 19 15 -18 14 11 3 0 2 6 1 31 7 1 13 12 17 12 20 8 19 29 -17 39 45 2 -16 13 14 15 15 13 11 13 17
5 5 4 5 7 8 16 13 10 10 8 8 8 4 6 8 8 10 24 -7 -9 1 5 1 18 10 6 2 7 7 7 27 19 4 -1 5 21 9 -5 19 8 25 3 -1 7 19 2 12 12 11 9 9 11 8
4 4 4 4 6 6 14 15 10 10 9 8 9 5 4 6 9 7 17 1 7 30 14 -2 16 11 8 7 22 3 6 13 -4 17 16 17 1 -18 18 11 7 7 4 18 10 11 10 4 6 8 10 14 14 13
5 4 4 4 4 6 9 17 10 10 11 8 9 6 3 7 7 8 10 10 3 7 15 11 -13 13 1 19 1 17 6 11 6 14 -3 33 38 22 -2 1 5 13 16 11 10 4 4 10 12 10 4 7 9 10
4 5 4 4 3 6 5 15 13 10 11 8 9 7 4 6 7 12 10 21 7 -5 12 1 4 -0 12 9 15 4 15 11 9 7 6 3 -3 8 7 8 2 -3 2 -2 5 1 7 -0 17 10 13 13 10 9
5 5 5 3 2 6 5 10 17 11 9 11 8 8 6 5 3 6 11 6 14 8 -1 13 9 7 4 3 7 13 9 3 14 16 8 10 12 8 0 6 7 6 5 8 5 2 5 5 0 5 13 9 9 14
4 6 6 3 3 9 7 6 19 11 10 12 8 9 9 6 5 4 7 11 11 17 15 -3 8 9 -1 8 1 4 15 6 3 2 11 11 17 14 5 6 4 5 6 5 4 8 7 5 7 4 5 5 6 7
4 6 7 4 3 6 10 3 14 13 11 10 12 7 10 8 6 6 6 4 3 7 19 0 5 9 5 6 7 15 11 8 7 4 -2 6 -4 5 6 7 6 5 4 8 7 6 6 6 6 10 3 9 5 5
4 6 6 4 3 4 6 9 7 17 12 9 11 11 5 13 7 9 10 10 12 7 12 10 13 5 22 8 8 14 9 10 11 1 14 10 20 1 12 4 6 9 7 5 4 4 5 7 5 3 8 4 5 8
6 6 6 5 2 2 4 10 5 17 13 10 8 12 10 8 12 9 15 14 12 9 15 8 12 4 13 12 8 10 9 11 8 3 17 9 2 20 6 4 6 1 6 9 9 8 3 12 3 7 3 4 6 5
8 7 6 6 3 3 4 9 7 13 15 11 9 13 17 10 14 6 15 14 7 13 9 8 13 8 12 13 13 10 12 7 8 17 10 6 0 14 6 11 9 -5 11 5 7 5 7 -0 5 14 16 10 6 6
9 8 7 7 5 1 6 10 6 13 16 12 8 13 3 11 18 14 3 12 12 17 9 9 3 7 7 15 10 9 9 13 12 13 9 22 14 6 17 0 13 16 8 9 4 7 6 6 9 8 7 15 13 12
10 9 8 8 6 4 5 9 4 12 15 -1 5 16 18 9 3 14 10 4 7 15 8 3 10 8 9 9 14 8 15 12 9 5 5 4 4 20 11 12 8 10 10 9 11 16 15 13 7 9 8 16 -0 12
4 4 6 8 5 3 6 8 5 11 17 -5 -0 3 15 13 13 6 12 17 10 8 7 4 4 10 14 11 14 8 8 10 6 11 3 9 8 8 10 7 7 8 12 12 9 7 12 14 15 15 12 12 11 13
6 5 4 3 4 1 3 6 7 10 12 5 17 -1 -10 3 13 21 8 10 8 7 1 11 7 8 11 15 12 10 3 8 8 4 4 5 8 7 7 7 5 7 9 10 10 14 16 10 5 22 15 5 15 5
4 5 5 4 6 3 5 7 8 -1 10 -4 3 17 12 17 -4 9 15 11 7 15 12 -7 11 12 -14 6 7 2 4 19 9 -0 7 8 6 6 8 8 8 7 7 9 11 12 11 13 16 11 16 7 1 9
5 6 6 6 0 12 7 9 8 5 1 2 10 9 -5 22 17 12 3 12 1 3 20 5 3 15 18 22 11 13 25 -1 5 12 6 -1 6 6 7 7 9 9 7 7 8 10 16 14 11 11 10 13 17 15
1 3 15 1 15 1 9 1 20 6 -6 16 14 17 13 6 -6 8 18 12 15 13 2 -12 -1 15 24 15 7 10 10 8 9 7 2 5 14 11 9 11 4 4 7 7 6 6 12 14 15 18 16 12 7 9
23 17 14 24 24 18 21 -20 31 9 14 6 -0 -3 10 14 14 6 6 10 9 1 5 13 13 30 25 16 11 13 16 16 19 18 12 10 6 5 4 5 3 2 3 7 6 7 9 12 12 20 20 19 14 12
9 11 18 12 2 1 12 -16 25 17 5 4 18 22 25 13 4 11 12 9 2 6 9 6 23 11 9 6 5 3 3 4 4 6 10 14 14 17 18 17 13 11 8 12 8 7 9 10 13 18 26 18 15 12
21 8 17 11 9 -4 19 21 -6 -8 11 15 15 9 2 4 7 18 12 6 5 6 11 12 8 9 14 13 10 6 3 4 9 9 5 7 9 10 13 20 19 14 10 12 7 5 7 8 13 15 19 15 13 10
8 17 12 27 -25 -1 33 0 19 28 -0 4 5 7 2 9 13 17 16 9 9 11 18 12 12 12 6 7 8 9 12 14 13 12 11 7 7 12 13 16 18 14 10 13 7 6 8 7 11 13 12 10 9 9
10 13 -1 -2 8 18 -18 21 25 19 6 10 -5 -8 -3 23 13 8 3 17 19 14 6 3 7 14 18 12 15 15 18 18 15 13 14 8 11 14 10 15 21 16 10 12 7 7 8 8 10 14 12 11 9 11
25 -2 -16 -0 19 -4 21 9 13 0 14 20 13 18 3 -12 6 -17 7 18 21 20 27 32 24 18 14 16 14 17 17 12 9 11 18 11 9 11 14 18 19 18 9 11 6 9 8 9 10 12 14 11 5 14
-26 26 3 -17 11 20 -4 28 19 -1 1 6 12 7 20 14 27 -0 13 15 27 28 26 -3 0 6 26 17 9 11 11 14 16 15 9 7 10 12 17 20 26 20 10 11 6 7 7 7 9 10 14 12 7 14
42 -20 4 31 -18 -13 7 9 2 11 28 15 23 7 -17 -38 -24 -9 4 -13 -3 56 49 30 22 20 7 7 12 13 13 13 13 8 8 10 11 11 15 20 24 20 13 15 7 6 8 7 9 9 13 12 8 14
2 29 -10 -6 35 7 -5 -7 2 10 -13 -12 -22 -17 -23 -5 13 12 10 30 29 -2 -10 -5 11 2 1 6 1 7 14 11 10 8 7 11 13 8 17 18 20 15 10 13 8 6 7 9 9 8 12 13 10 12
19 -8 23 16 1 -17 -11 10 8 6 2 8 13 18 9 -2 -5 5 10 10 8 4 2 -6 12 2 12 5 -2 13 13 12 10 11 10 8 13 9 5 14 24 17 13 9 6 6 7 9 10 9 10 13 12 9
-2 19 2 4 16 25 11 4 13 5 7 16 8 13 13 17 16 14 10 9 13 11 8 5 12 18 20 16 6 14 11 12 11 12 14 7 5 9 9 7 14 20 20 15 12 7 6 6 8 11 9 12 12 10
27 10 -4 -5 12 12 9 7 16 15 17 13 3 14 5 -1 -10 -2 -3 1 1 -2 -2 0 2 5 9 27 11 -5 9 6 9 9 13 12 10 9 13 9 7 12 17 17 19 19 9 7 7 8 12 9 12 11
19 19 21 20 14 8 14 17 20 21 24 12 5 10 9 9 2 11 13 12 10 14 16 15 15 21 25 23 20 6 14 6 6 7 6 7 10 8 7 8 7 7 11 18 18 16 12 9 8 10 8 12 11 12
Height
3077 3079 3082 3082 3083 3084 3084 3085 3085 3086 3085 3085 3083 3083 3082 3078 3077 3076 3073 3071 3069 3067 3068 3063 3062 3059 3055 3050 3043 3041 3038 3032 3029 3024 3027 3027 3027 3025 3024 3021 3017 3011 3013 3013 3017 3019 3026 3021 3013 3013 3024 3020 3017 3015
3075 3079 3081 3082 3083 3083 3084 3084 3086 3086 3085 3086 3084 3085 3083 3080 3080 3078 3075 3073 3072 3070 3072 3069 3065 3064 3060 3057 3054 3053 3050 3045 3042 3039 3039 3039 3038 3037 3034 3030 3030 3024 3031 3031 3031 3039 3040 3033 3028 3027 3026 3023 3021 3019
3074 3078 3080 3082 3082 3082 3083 3084 3085 3085 3086 3085 3085 3085 3083 3083 3082 3080 3078 3076 3074 3073 3079 3073 3069 3069 3067 3063 3062 3059 3056 3054 3051 3050 3047 3047 3046 3047 3043 3041 3040 3041 3040 3038 3040 3044 3041 3038 3035 3032 3030 3028 3027 3025
3073 3076 3079 3081 3081 3082 3083 3083 3084 3085 3086 3085 3086 3086 3084 3085 3084 3082 3081 3079 3079 3077 3078 3079 3076 3072 3071 3069 3067 3065 3063 3062 3059 3056 3054 3053 3052 3056 3053 3053 3047 3050 3047 3047 3047 3047 3046 3043 3040 3038 3035 3033 3031 3029
3071 3074 3078 3080 3080 3082 3083 3082 3083 3084 3085 3086 3087 3086 3086 3087 3086 3084 3083 3082 3081 3082 3081 3082 3081 3078 3075 3073 3072 3071 3071 3069 3066 3062 3060 3059 3061 3062 3061 3057 3054 3057 3055 3052 3054 3054 3051 3049 3046 3043 3040 3036 3035 3033
3069 3073 3076 3078 3080 3081 3081 3081 3082 3085 3084 3086 3087 3086 3087 3088 3087 3086 3085 3085 3084 3084 3083 3083 3084 3082 3080 3078 3078 3076 3075 3073 3072 3070 3069 3067 3065 3066 3068 3064 3068 3065 3063 3062 3061 3059 3056 3054 3051 3048 3045 3042 3039 3037
3066 3071 3074 3077 3078 3080 3080 3079 3082 3083 3084 3086 3087 3086 3088 3089 3088 3088 3088 3086 3085 3085 3086 3086 3088 3085 3083 3083 3080 3082 3079 3077 3077 3075 3076 3075 3074 3073 3072 3070 3073 3071 3069 3067 3066 3064 3061 3058 3055 3053 3050 3047 3045 3043
3064 3068 3072 3075 3077 3078 3079 3079 3081 3082 3083 3086 3086 3085 3088 3089 3089 3089 3088 3087 3086 3087 3087 3088 3090 3089 3087 3086 3084 3083 3083 3081 3080 3081 3081 3080 3080 3079 3078 3079 3078 3077 3076 3074 3072 3070 3067 3065 3061 3057 3055 3052 3049 3046
3061 3065 3069 3073 3075 3076 3077 3078 3079 3080 3082 3084 3084 3085 3087 3089 3089 3090 3089 3088 3087 3090 3088 3089 3091 3090 3089 3089 3087 3086 3085 3085 3085 3084 3084 3084 3082 3082 3083 3082 3081 3079 3078 3077 3075 3073 3071 3068 3065 3062 3058 3055 3052 3049
3058 3062 3067 3070 3073 3074 3075 3077 3078 3079 3081 3082 3083 3085 3086 3088 3088 3089 3090 3090 3089 3089 3088 3089 3090 3091 3091 3089 3089 3089 3087 3087 3087 3087 3086 3085 3084 3084 3083 3082 3081 3080 3080 3078 3077 3075 3073 3070 3067 3064 3061 3058 3055 3052
3054 3059 3064 3067 3071 3073 3074 3076 3077 3078 3079 3080 3081 3084 3085 3086 3088 3088 3088 3088 3088 3089 3089 3089 3089 3090 3090 3090 3089 3089 3088 3089 3088 3088 3087 3086 3084 3083 3083 3082 3080 3079 3079 3078 3077 3075 3073 3071 3069 3066 3063 3060 3057 3055
3050 3056 3060 3064 3067 3070 3072 3074 3075 3076 3078 3080 3080 3082 3084 3085 3086 3087 3086 3086 3086 3088 3088 3089 3089 3089 3089 3089 3089 3089 3089 3090 3089 3088 3087 3085 3083 3083 3082 3082 3080 3079 3078 3076 3076 3075 3072 3070 3068 3066 3064 3061 3058 3056
3047 3052 3056 3061 3064 3067 3069 3072 3074 3074 3076 3078 3080 3081 3083 3083 3083 3082 3083 3084 3085 3085 3086 3087 3088 3088 3088 3088 3089 3089 3088 3089 3089 3087 3086 3085 3082 3082 3081 3081 3079 3077 3075 3074 3073 3071 3069 3068 3065 3063 3061 3059 3058 3055
3042 3048 3053 3056 3060 3064 3066 3069 3070 3072 3074 3077 3078 3079 3079 3077 3078 3079 3082 3084 3085 3084 3085 3086 3086 3088 3087 3088 3087 3088 3089 3087 3087 3087 3085 3084 3082 3080 3079 3077 3076 3075 3073 3072 3070 3068 3065 3063 3062 3060 3058 3056 3054 3053
3038 3043 3048 3052 3056 3060 3063 3065 3067 3069 3071 3074 3075 3073 3072 3073 3076 3078 3080 3080 3082 3083 3084 3085 3086 3087 3086 3086 3086 3087 3087 3085 3084 3084 3084 3082 3079 3078 3076 3075 3073 3072 3070 3068 3066 3063 3061 3059 3057 3055 3054 3051 3050 3049
3032 3035 3040 3047 3052 3056 3059 3060 3063 3066 3067 3069 3068 3067 3068 3069 3071 3073 3075 3077 3079 3081 3082 3084 3084 3084 3083 3084 3084 3083 3085 3082 3082 3080 3079 3078 3077 3076 3074 3073 3071 3069 3068 3065 3063 3061 3058 3056 3053 3051 3050 3048 3046 3045
3021 3027 3037 3043 3048 3051 3054 3057 3059 3061 3061 3060 3061 3064 3065 3066 3067 3069 3072 3074 3075 3078 3078 3080 3081 3081 3081 3080 3079 3079 3077 3079 3079 3076 3075 3075 3074 3073 3072 3071 3069 3067 3065 3062 3060 3058 3055 3053 3051 3048 3047 3044 3042 3040
3015 3025 3032 3036 3041 3044 3048 3051 3054 3053 3051 3054 3057 3060 3061 3063 3064 3066 3067 3070 3071 3073 3075 3077 3077 3076 3074 3073 3073 3075 3074 3073 3073 3072 3072 3071 3070 3069 3068 3067 3066 3064 3062 3060 3057 3054 3052 3049 3047 3045 3043 3041 3038 3037
3011 3019 3024 3028 3034 3040 3044 3046 3046 3045 3045 3049 3052 3056 3057 3058 3059 3061 3063 3065 3067 3068 3070 3072 3070 3065 3066 3067 3068 3069 3069 3069 3068 3068 3066 3067 3066 3065 3064 3063 3062 3060 3058 3056 3054 3051 3048 3046 3043 3041 3039 3036 3034 3032
3004 3011 3016 3023 3029 3033 3037 3037 3037 3039 3039 3040 3045 3050 3051 3053 3054 3054 3055 3058 3061 3061 3060 3058 3057 3060 3061 3063 3064 3063 3065 3065 3064 3062 3061 3061 3060 3060 3059 3058 3057 3055 3054 3052 3050 3047 3044 3042 3039 3037 3035 3032 3030 3028
2999 3005 3012 3017 3020 3025 3028 3025 3028 3030 3034 3034 3038 3043 3044 3045 3046 3047 3048 3050 3051 3050 3048 3050 3053 3056 3057 3057 3057 3057 3057 3057 3057 3056 3056 3055 3054 3053 3053 3053 3052 3050 3049 3047 3046 3044 3041 3038 3034 3031 3029 3027 3025 3024
2990 2998 3005 3008 3014 3017 3017 3017 3022 3025 3029 3029 3031 3034 3036 3038 3039 3039 3041 3038 3038 3039 3043 3046 3048 3050 3051 3052 3052 3052 3052 3051 3050 3050 3050 3049 3048 3047 3046 3045 3045 3044 3044 3043 3041 3039 3037 3034 3030 3027 3024 3022 3021 3020
2985 2992 2997 3003 3008 3007 3005 3012 3015 3016 3021 3022 3026 3026 3026 3030 3029 3032 3027 3024 3026 3033 3037 3040 3042 3042 3043 3045 3044 3043 3044 3043 3042 3042 3043 3042 3041 3040 3039 3037 3036 3037 3037 3037 3036 3034 3032 3030 3027 3024 3021 3019 3017 3016
2978 2984 2989 2992 2992 2992 2994 2998 3001 3007 3011 3015 3018 3018 3020 3021 3022 3019 3015 3016 3019 3025 3029 3033 3034 3034 3035 3035 3034 3035 3036 3036 3035 3034 3035 3035 3034 3033 3032 3030 3029 3029 3030 3030 3030 3029 3028 3026 3023 3021 3018 3016 3015 3012
2971 2977 2981 2977 2977 2981 2983 2986 2991 2995 2998 3005 3010 3010 3012 3013 3011 3007 3005 3009 3014 3017 3021 3023 3025 3025 3025 3026 3028 3027 3028 3028 3027 3027 3028 3027 3027 3026 3024 3023 3022 3023 3023 3023 3024 3023 3023 3021 3019 3017 3015 3013 3011 3009
2954 2955 2957 2955 2963 2968 2969 2975 2979 2984 2992 2996 2998 3003 3008 3005 3001 2993 2996 3002 3007 3010 3013 3013 3015 3017 3019 3020 3020 3020 3021 3020 3019 3018 3020 3019 3019 3018 3017 3015 3014 3015 3016 3017 3017 3018 3017 3016 3014 3013 3011 3009 3007 3005
2937 2936 2937 2945 2951 2957 2963 2967 2975 2979 2982 2982 2988 2996 2999 2995 2985 2983 2992 2998 2999 3002 3004 3007 3007 3010 3012 3013 3014 3014 3013 3013 3013 3013 3012 3012 3011 3010 3009 3008 3008 3009 3009 3010 3011 3012 3011 3010 3009 3008 3007 3005 3004 3002
2921 2924 2927 2935 2943 2945 2952 2956 2959 2961 2963 2969 2977 2980 2979 2977 2975 2983 2993 2994 2995 2993 2995 2999 3002 3004 3005 3006 3006 3006 3006 3006 3006 3005 3005 3005 3004 3003 3002 3001 3001 3002 3003 3004 3005 3005 3005 3005 3004 3003 3002 3001 3000 2998
2911 2916 2923 2925 2934 2937 2938 2940 2940 2945 2951 2957 2960 2962 2961 2967 2975 2979 2987 2989 2991 2991 2993 2995 2996 2996 2997 2998 2999 2999 2999 2999 2999 2998 2998 2998 2997 2997 2995 2994 2994 2995 2996 2997 2998 2998 2998 2998 2998 2997 2997 2996 2995 2994
2903 2907 2911 2915 2918 2921 2921 2928 2933 2939 2944 2947 2951 2955 2957 2959 2963 2970 2976 2981 2984 2985 2986 2986 2988 2988 2989 2990 2991 2991 2991 2991 2991 2991 2991 2990 2990 2989 2987 2988 2987 2987 2988 2989 2990 2991 2992 2992 2991 2991 2991 2991 2990 2990
2895 2899 2904 2906 2909 2914 2920 2925 2929 2934 2937 2938 2941 2942 2943 2950 2953 2955 2959 2966 2972 2975 2976 2977 2978 2979 2980 2981 2982 2982 2982 2983 2983 2983 2982 2982 2981 2980 2981 2980 2981 2980 2980 2980 2982 2983 2984 2985 2985 2985 2985 2985 2985 2984
2885 2889 2895 2898 2904 2907 2912 2917 2921 2924 2925 2927 2928 2932 2934 2935 2935 2941 2945 2951 2953 2958 2962 2966 2967 2967 2970 2970 2971 2971 2972 2972 2971 2972 2973 2972 2971 2971 2972 2972 2973 2972 2972 2972 2974 2976 2977 2977 2978 2978 2978 2978 2978 2978
2877 2883 2887 2893 2896 2898 2902 2908 2908 2911 2913 2912 2914 2918 2920 2922 2919 2925 2931 2933 2936 2940 2944 2948 2952 2954 2955 2955 2956 2959 2960 2960 2959 2959 2960 2960 2961 2961 2962 2962 2964 2964 2964 2964 2965 2966 2968 2969 2970 2971 2971 2971 2971 2971